KUIPER-00627

导读

**KUIPER-00627(NORAD 69782)卫星摘要** KUIPER-00627是美国亚马逊“柯伊伯计划”(现亚马逊低轨星座/Amazon Leo)的组网卫星之一,NORAD ID为69782,归属美国,2026年6月下旬至7月初期间发射入轨(具体发射日期待公开数据确认),部署于近地轨道(LEO),工作于约590-630公里高度的星座轨道层,配备相控阵天线与星间激光链路,承担全球宽带互联网接入服务任务,是亚马逊规划3236颗卫星规模低轨互联网星座的组成部分,当前处于在轨部署运作状态,由北美防空司令部持续跟踪其轨道参数以保障空间安全。 (全文约148字)

基本信息
目录编号:
69782
目录名称:
KUIPER-00627
国际标识:
2026-151V
轨道中心:
EARTH
卫星名称:
KUIPER-00627
卫星全名:
KUIPER-00627
卫星状态:
在轨 (已飞行65 天)
发射日期:
2026-07-02 UTC
国别 :
美国 (US)
星等 :
--
轨道信息
数据来源 国际轨道数据
星历时间: 2026-09-05T04:00:02+0800
5小时前
查看轨道信息
半长轴: 6905.985km
偏心率: 0.0009146
轨道倾角: 51.880°
近地点辐角 30.969°
升交点赤经 293.224°
平近点角 315.880°
近地点: 521.531km
远地点: 534.165km
周期: 95.191分钟
每日圈数: 15.127402
详细信息
使用方式:
暂无
2D轨道图
3D轨道图
轨道高度分析图
轨道倾角分析图
轨道综合分析图
查看轨道综合分析图